Temperature
19 19 19 19 16 14 16 17 18 18 19 22 22 22 22 22 23 22 22 22 20 19 18 16 15 15 15 14 14 13 13 13 12 11 11 11 11 11 10 10 10 10 10 10 11 11 11 11 12
19 19 19 18 14 15 16 17 18 19 21 22 22 22 22 22 23 23 23 22 20 18 17 16 15 15 14 14 13 13 13 13 12 11 11 11 11 11 11 10 10 10 10 11 11 11 11 11 11
19 19 19 14 14 15 18 18 18 19 21 22 22 22 22 23 23 23 23 22 21 19 17 16 15 15 14 14 13 13 13 13 12 11 11 11 12 11 10 10 10 10 11 11 11 11 10 11 11
18 19 17 13 16 16 16 17 17 17 21 22 23 22 23 23 24 23 23 22 21 19 18 17 15 15 14 14 13 13 13 13 12 12 11 11 11 11 10 10 11 11 11 12 12 11 11 11 11
18 18 14 13 15 15 15 17 18 17 19 22 22 22 23 24 24 23 23 23 21 20 18 17 16 15 14 14 13 13 13 13 13 12 12 12 11 11 10 11 11 12 12 12 12 12 11 11 12
18 15 14 14 14 15 15 18 17 17 18 21 21 21 24 24 24 24 23 23 21 19 18 17 16 15 14 14 14 13 13 13 13 13 12 12 12 11 11 11 12 12 11 11 11 11 11 11 12
17 13 14 14 14 15 17 19 18 17 18 21 22 21 24 24 24 24 23 23 21 19 18 17 16 15 15 14 14 14 13 13 14 14 14 14 14 13 12 13 13 12 11 10 10 11 11 12 12
17 13 15 13 14 15 17 19 19 19 19 21 21 21 23 23 23 23 23 23 22 20 18 17 16 16 15 15 15 14 14 14 14 15 15 15 14 14 14 14 13 12 11 11 11 11 11 11 12
16 13 13 14 14 15 17 17 19 19 19 21 21 22 22 22 23 23 23 23 23 22 20 18 17 16 16 15 16 15 15 15 15 15 15 15 15 15 15 14 14 13 13 12 12 11 11 12 12
15 12 13 15 15 16 17 17 18 19 18 20 22 22 22 22 23 23 23 24 23 23 21 19 18 17 16 16 16 16 16 16 16 16 16 16 15 15 15 15 14 14 13 13 12 12 12 12 13
14 13 14 15 17 17 16 17 18 18 17 20 21 21 22 22 22 22 23 23 23 22 21 20 19 18 17 17 17 16 16 16 17 17 16 16 16 16 16 15 15 14 14 13 13 13 13 13 13
13 13 15 16 17 17 17 17 17 17 18 20 20 21 21 22 22 22 22 22 22 21 21 20 19 19 18 17 17 17 17 17 17 17 17 16 17 16 16 16 15 15 14 14 14 13 13 13 13
13 14 16 17 17 17 17 16 16 17 20 20 20 21 21 21 22 22 21 20 20 20 20 20 19 19 18 18 17 17 17 17 17 17 17 17 17 17 16 16 16 15 15 14 14 14 13 13 13
14 15 16 16 17 17 16 16 16 18 20 20 20 21 21 21 21 21 21 21 20 20 20 19 19 19 18 18 18 18 18 17 17 17 17 17 16 16 16 16 15 15 15 14 14 14 13 13 13
15 15 14 15 16 16 16 15 15 19 19 19 20 20 20 21 21 21 21 21 21 20 20 20 20 19 19 19 18 18 18 17 17 17 17 16 16 16 15 15 15 15 14 14 13 13 13 13 13
14 14 14 14 15 16 16 15 16 18 18 18 18 18 19 20 20 21 21 21 21 21 21 20 20 20 20 19 19 18 18 18 17 17 16 16 15 15 14 14 14 14 13 13 13 12 12 12 12
14 13 13 14 15 15 14 14 15 17 18 17 17 17 17 18 19 19 20 20 20 20 20 20 20 20 20 19 18 18 17 17 17 16 16 15 15 14 14 13 13 13 12 12 12 12 12 12 12
12 13 14 13 14 14 13 13 15 16 17 16 15 15 15 17 17 18 18 19 19 19 19 20 20 20 19 19 18 17 17 16 16 15 15 14 14 14 13 13 13 13 12 12 12 12 12 12 12
12 13 13 13 14 14 13 13 14 15 15 15 14 14 14 15 15 16 17 18 18 18 18 19 19 19 19 18 17 16 15 14 14 14 13 13 13 13 13 13 12 12 12 12 12 12 12 12 12
13 13 13 13 13 14 12 12 13 13 14 15 14 13 13 13 14 15 16 17 17 18 18 18 18 18 18 17 16 15 14 13 13 13 13 13 13 13 12 12 12 12 11 11 11 11 11 11 11
12 12 13 13 12 13 13 13 14 14 14 14 14 13 13 14 14 15 15 16 17 17 17 17 17 17 17 16 15 14 13 12 12 12 12 12 12 12 11 11 11 11 11 11 10 10 10 9 10
12 13 13 13 13 12 13 12 13 13 13 12 12 12 13 13 13 14 15 15 16 15 15 16 16 15 15 14 14 13 13 13 12 11 11 11 11 11 11 11 11 11 10 10 10 10 9 9 9
13 14 13 13 13 12 12 12 12 13 13 12 11 12 12 13 13 13 14 14 14 14 14 14 14 14 13 13 13 13 12 12 11 12 12 12 11 11 11 11 10 10 10 9 9 9 9 8 8
13 13 12 11 11 12 12 12 12 12 12 12 11 12 12 12 12 13 13 13 13 13 13 13 14 13 13 13 12 12 12 12 12 12 12 11 11 11 10 10 9 9 8 8 8 8 8 7 7
13 13 12 12 11 11 12 11 12 13 13 12 11 12 12 12 12 12 12 12 12 13 13 13 13 12 12 12 12 12 11 11 11 11 10 10 10 10 9 9 8 8 7 7 7 6 6 6 6
12 12 11 12 11 11 11 10 12 13 12 13 13 13 12 12 12 12 12 12 12 12 12 12 12 12 11 11 11 11 10 10 10 9 9 9 8 8 7 7 7 7 6 6 6 5 5 4 4
11 11 12 11 12 11 11 11 12 13 11 10 11 12 12 12 12 12 12 12 12 12 11 11 11 11 11 10 10 10 9 9 9 8 8 7 7 6 6 6 6 6 6 5 5 5 4 3 3
12 11 10 12 12 12 12 12 13 14 13 11 9 10 12 12 12 12 11 11 11 11 11 11 10 10 10 9 9 9 8 8 8 7 7 6 6 5 5 5 5 5 5 5 4 4 3 2 2
11 11 11 11 10 11 12 13 13 12 12 10 10 11 12 12 12 12 11 11 11 10 10 10 10 9 9 8 8 7 7 7 6 6 5 5 5 5 5 5 5 4 4 4 3 3 2 1 0
12 11 10 11 10 9 10 12 13 10 10 10 11 11 12 13 12 12 11 10 10 9 9 9 8 8 8 7 7 7 6 6 5 5 5 4 4 4 4 4 4 4 3 3 2 1 1 -0 -2
Wind_Speed
11 6 3 4 5 5 3 5 4 6 6 5 3 2 2 2 3 5 2 8 5 6 12 14 15 15 16 15 13 11 9 7 7 6 5 5 4 3 1 1 2 2 2 3 3 3 3 3 4
5 4 5 5 5 1 6 6 5 5 6 6 2 1 2 3 3 3 1 8 6 8 13 12 14 16 16 14 13 11 9 8 8 6 6 6 4 2 1 2 3 3 3 4 5 5 3 1 3
3 6 5 5 3 5 5 3 5 8 9 5 3 2 3 3 3 3 4 9 7 8 12 13 15 16 15 14 12 11 9 9 8 7 6 6 5 3 2 3 4 4 4 5 6 6 5 3 3
4 5 5 5 3 5 5 6 7 10 9 4 3 4 4 4 3 2 6 9 9 9 11 13 16 16 15 14 13 11 10 10 9 7 7 7 6 4 4 4 4 5 5 6 7 7 7 6 6
5 5 5 3 5 6 6 7 6 6 6 5 3 4 5 2 0 5 8 10 10 9 9 13 17 17 16 14 13 12 11 11 10 9 7 6 6 6 5 5 5 6 7 8 8 9 9 9 9
5 5 3 3 6 7 7 6 6 5 6 6 3 4 5 1 2 6 8 9 9 9 9 11 17 17 16 15 14 13 12 12 10 9 8 7 7 7 7 7 7 8 9 9 9 9 11 12 12
5 4 3 4 5 7 4 6 6 7 7 5 3 3 6 3 2 6 7 7 7 6 6 8 12 14 15 15 15 14 13 12 11 11 10 8 7 8 9 8 9 10 10 11 11 11 11 12 13
5 5 3 3 4 6 5 8 6 5 7 5 3 3 5 5 4 6 6 6 5 6 6 6 8 10 11 13 15 14 14 13 12 12 11 10 9 9 10 9 9 11 12 12 13 13 13 13 14
5 4 4 6 6 6 4 7 7 4 6 6 4 3 4 3 6 6 4 4 5 6 6 6 6 7 9 10 12 13 13 13 12 11 11 11 9 9 9 11 10 12 13 13 14 15 15 14 14
5 5 8 6 6 5 6 5 6 8 9 6 4 3 2 2 5 7 7 8 9 8 7 7 7 7 8 9 9 9 10 10 10 9 9 9 9 9 9 10 11 13 14 14 16 16 16 14 11
7 8 6 6 6 5 5 6 4 5 8 6 8 10 6 4 7 9 10 9 8 6 7 9 9 7 6 5 6 7 8 8 9 10 10 9 8 7 7 6 7 9 10 10 12 13 11 10 9
6 7 6 5 2 3 5 6 7 7 11 11 9 8 7 8 11 12 11 7 4 6 7 8 9 8 7 6 5 5 5 5 6 10 11 8 4 4 5 4 6 7 8 8 9 8 11 11 12
6 5 5 6 8 7 7 9 8 10 14 12 10 9 10 10 11 8 5 4 4 7 8 8 8 9 8 7 5 4 5 6 8 10 11 11 4 6 4 4 6 7 9 7 6 7 7 8 8
8 7 7 7 8 5 8 12 7 13 11 9 10 11 10 8 7 5 5 6 7 8 9 9 11 11 10 9 9 8 6 7 8 8 11 12 9 5 6 6 5 6 8 9 8 8 9 9 8
5 3 7 7 7 5 4 12 10 10 7 8 9 9 7 6 5 4 5 6 6 7 8 9 11 12 12 12 11 9 7 7 5 7 11 12 11 8 5 6 7 7 10 9 8 7 6 9 9
6 3 6 7 4 5 3 14 14 5 4 6 6 6 6 7 8 7 8 7 7 7 6 7 8 10 12 12 10 8 5 6 5 7 8 9 10 10 5 7 9 7 7 5 7 7 7 10 10
5 5 5 7 4 3 5 12 11 2 3 4 3 4 5 7 9 9 9 8 8 7 7 5 4 6 9 10 7 6 4 5 3 4 4 6 8 10 7 8 8 7 5 6 8 8 7 10 11
7 6 5 7 4 2 7 13 18 5 2 2 1 2 5 8 9 8 9 9 8 8 8 8 7 5 2 3 3 2 1 1 1 2 3 5 6 8 6 7 8 7 7 7 8 11 10 11 12
8 8 7 8 5 4 10 15 18 9 4 4 3 2 4 6 6 8 9 9 9 11 11 11 11 9 5 3 3 2 2 2 3 3 4 5 5 5 3 4 6 6 6 8 9 9 11 11 9
6 5 5 7 3 4 9 12 12 7 5 6 7 5 4 5 7 9 10 10 10 10 10 11 12 11 9 5 4 4 5 6 6 8 10 12 11 11 8 8 7 7 6 7 8 8 7 7 6
6 7 6 6 9 6 7 10 8 4 1 5 7 6 6 6 6 6 8 9 9 11 10 11 13 14 13 10 7 7 6 5 7 8 8 8 11 12 10 9 8 8 7 7 8 8 8 8 7
8 7 5 4 4 6 4 7 9 6 2 4 6 7 6 6 5 5 6 8 9 8 9 11 13 14 14 12 13 14 10 8 6 5 6 8 9 10 11 9 8 8 7 8 8 9 7 8 8
6 5 6 4 4 5 3 5 9 4 6 8 8 8 7 7 7 6 6 7 7 7 8 10 12 14 12 12 12 12 10 6 5 5 8 9 8 8 11 9 8 9 8 8 9 9 9 6 7
6 6 5 4 3 5 6 7 8 6 8 7 9 9 9 8 7 6 6 7 8 7 8 9 12 12 11 12 11 11 10 9 9 9 9 7 6 7 10 9 9 9 8 9 9 9 9 8 8
5 5 1 1 1 7 4 5 10 8 6 8 13 12 10 9 8 7 8 7 7 8 8 9 11 11 10 11 11 10 9 9 10 8 8 8 7 6 10 9 9 9 9 9 9 9 9 9 9
9 9 7 7 5 5 2 7 9 5 6 6 10 12 10 9 7 8 8 7 7 8 7 8 10 9 9 10 9 9 9 7 7 7 7 7 6 6 9 10 10 10 10 11 10 8 9 8 9
10 8 6 5 2 4 6 7 9 1 6 3 11 12 11 10 9 8 7 7 7 7 7 7 9 9 9 8 9 9 9 8 8 7 7 6 6 7 9 9 10 10 10 10 10 8 10 9 9
9 11 6 5 4 5 7 6 5 7 4 3 9 11 10 9 8 8 7 6 6 6 6 7 8 9 8 8 8 8 8 8 7 7 8 7 8 8 8 9 9 10 10 10 10 10 9 10 10
7 6 6 7 5 5 4 7 5 8 7 7 9 8 9 10 9 8 7 7 7 6 7 7 8 8 8 8 8 8 7 7 7 6 7 7 7 8 8 9 9 10 10 11 11 11 11 12 12
8 10 9 7 6 6 3 7 6 7 6 6 8 7 7 8 8 8 8 8 7 7 7 7 7 8 7 7 7 7 6 6 7 7 7 7 8 8 8 9 9 10 11 11 11 12 12 13 12
Wind_Direction
340 7 63 52 53 53 245 249 248 290 289 287 298 260 237 223 222 262 315 154 163 152 171 189 181 174 168 164 159 160 169 181 191 190 173 169 160 153 151 263 278 277 287 294 301 278 252 226 178
346 27 51 56 87 105 263 250 253 257 264 301 291 287 278 256 240 265 211 180 170 160 168 182 181 176 171 165 161 168 179 190 195 195 186 181 168 164 205 262 273 270 273 284 300 303 267 213 170
48 49 72 69 119 192 246 267 271 289 280 259 269 269 252 245 224 228 207 165 150 157 165 175 181 179 175 168 169 177 189 196 199 203 201 196 179 179 229 257 269 267 263 269 277 290 273 256 256
54 41 56 69 249 237 250 280 291 306 310 259 218 272 255 233 215 203 149 147 148 159 164 175 183 182 178 174 177 186 195 198 202 209 214 210 197 205 232 250 260 260 260 261 264 266 268 257 261
55 67 47 355 274 268 265 273 293 300 288 285 216 258 264 224 189 139 147 152 156 162 169 180 186 185 183 183 186 193 199 201 204 211 216 214 217 226 231 244 254 251 251 254 258 257 257 260 261
52 63 71 286 279 283 275 267 306 297 281 283 230 250 263 352 137 162 160 162 164 166 173 185 191 190 190 192 194 199 203 206 210 215 213 218 229 232 233 240 249 253 252 253 256 260 260 260 263
105 107 187 239 278 288 267 309 305 300 292 275 232 234 287 303 179 156 163 157 162 168 173 187 195 195 196 197 199 204 208 213 217 220 218 221 233 242 248 251 251 258 260 258 257 260 265 266 267
124 118 187 234 248 267 290 321 293 284 282 286 201 223 297 329 122 129 150 158 167 179 188 189 196 196 197 200 204 208 214 220 225 227 225 221 225 237 250 259 257 262 268 268 265 264 268 272 274
100 102 214 224 219 254 303 330 305 284 288 288 237 242 284 315 116 122 140 180 195 197 200 197 197 197 197 200 208 214 219 225 228 236 234 224 224 235 247 256 258 262 270 276 276 273 274 278 280
120 177 224 220 206 245 299 296 293 318 325 310 305 284 340 143 165 187 198 204 204 201 200 201 202 200 198 205 208 215 220 225 228 230 234 228 226 235 246 257 266 270 275 280 283 282 281 285 284
165 199 231 245 234 251 282 283 274 294 295 271 289 307 318 219 216 223 227 222 216 204 204 206 207 202 196 202 204 213 219 224 229 230 229 229 232 243 255 267 279 284 285 280 278 280 280 278 272
178 232 231 255 244 252 267 282 279 233 243 261 276 296 291 246 231 228 234 238 221 207 214 210 207 205 205 204 207 213 215 219 224 228 227 221 223 230 238 241 250 256 259 260 260 258 258 259 258
197 248 243 247 269 263 268 260 258 253 253 273 294 294 280 261 247 249 269 281 239 228 226 217 206 208 207 208 214 213 217 221 224 227 229 221 214 229 224 227 235 239 242 242 244 247 250 252 253
207 231 268 289 288 277 262 272 255 260 263 291 303 303 299 280 272 272 272 266 255 243 233 218 212 210 205 211 217 221 220 225 224 226 231 227 227 227 235 242 239 239 240 242 242 243 250 254 253
168 240 298 285 274 267 270 286 248 260 284 295 312 325 342 0 3 340 320 295 280 266 249 227 220 210 208 213 218 222 218 219 221 228 231 230 231 233 234 248 251 247 243 242 246 248 249 258 256
145 189 266 284 282 266 210 270 279 297 277 306 339 3 30 35 34 19 6 353 338 321 298 263 240 214 211 215 215 220 210 214 228 233 237 237 239 241 241 252 261 255 245 239 248 252 254 258 259
151 189 228 282 265 253 216 262 283 20 359 326 346 19 36 31 21 10 5 2 356 354 349 338 285 238 217 214 214 217 210 220 238 249 255 255 251 247 243 258 268 271 259 254 258 261 250 265 269
177 181 213 244 280 261 254 263 278 281 291 282 87 49 44 41 18 3 8 8 10 14 20 21 17 354 258 194 188 190 231 288 312 292 276 268 261 256 246 260 272 277 275 273 265 268 266 267 273
158 173 220 250 265 284 266 269 276 284 243 211 178 136 65 44 16 17 20 19 24 26 27 26 31 21 37 72 89 91 50 25 24 15 6 0 353 338 309 302 302 301 289 287 284 280 279 277 274
148 177 237 280 286 247 278 278 272 264 227 192 172 156 112 75 41 27 26 29 32 30 28 35 38 36 40 60 75 84 83 59 55 50 46 42 40 35 32 19 5 352 338 330 321 310 296 288 272
182 194 224 270 329 327 312 300 295 297 125 125 130 130 121 108 88 55 42 39 38 36 31 46 45 45 45 51 66 66 59 51 42 35 35 30 36 35 30 24 17 7 4 351 340 337 322 312 301
215 207 214 269 324 298 350 306 290 282 223 163 140 133 135 124 107 87 68 55 46 38 39 50 53 52 49 54 68 72 72 65 40 30 28 25 28 29 23 17 12 6 2 355 349 349 336 329 325
183 173 191 225 226 276 284 257 281 286 236 213 182 168 164 151 131 108 86 75 60 50 53 57 62 59 55 60 67 74 73 68 51 36 30 24 18 20 17 12 7 2 355 347 343 341 337 331 324
121 90 76 55 93 272 233 208 279 246 221 202 179 177 176 164 143 116 96 86 72 61 61 65 71 63 58 64 64 70 70 58 47 34 25 16 8 9 11 5 1 355 350 343 338 332 328 323 321
133 123 115 281 260 250 235 213 252 255 232 198 178 177 178 171 153 134 114 97 85 75 71 73 78 69 60 63 60 59 60 56 48 33 21 15 6 0 0 360 354 351 344 339 336 330 326 320 323
174 165 173 193 224 274 228 235 255 282 290 230 168 161 162 169 162 147 132 117 103 92 83 82 81 74 64 64 61 54 52 51 42 30 21 13 2 351 354 353 350 346 343 342 338 330 324 324 320
162 191 174 136 219 267 269 274 300 296 17 109 148 154 166 171 167 155 137 121 114 103 91 89 87 76 64 63 65 53 46 42 33 23 17 8 358 355 352 346 343 340 338 338 335 328 323 324 322
160 150 138 168 204 258 286 281 274 314 329 170 171 171 170 165 164 154 138 126 116 106 93 79 78 76 65 59 58 58 43 35 26 19 11 1 351 346 341 341 337 335 333 334 331 326 324 328 324
130 149 154 157 167 177 278 284 248 276 274 215 196 182 168 166 165 154 138 127 116 99 85 75 68 66 60 60 58 50 37 26 19 13 0 349 342 339 339 337 335 334 333 332 328 324 327 326 321
157 166 150 162 203 179 189 272 298 298 280 185 168 166 162 162 157 145 136 126 111 95 79 69 63 61 59 62 58 46 29 18 11 360 350 344 341 336 335 332 331 331 332 326 321 321 325 319 318
Height
1522 1520 1519 1519 1522 1533 1532 1523 1516 1513 1508 1504 1502 1501 1500 1500 1502 1506 1500 1496 1496 1497 1497 1498 1500 1502 1504 1505 1506 1506 1506 1505 1505 1506 1507 1507 1507 1507 1508 1508 1509 1510 1510 1510 1511 1512 1513 1513 1513
1521 1520 1520 1520 1529 1539 1533 1520 1516 1511 1507 1504 1501 1500 1499 1498 1498 1498 1497 1496 1496 1497 1497 1498 1500 1502 1504 1505 1506 1506 1505 1504 1504 1505 1506 1507 1507 1507 1507 1508 1508 1509 1509 1509 1509 1510 1511 1512 1512
1521 1520 1520 1523 1532 1535 1525 1516 1513 1508 1504 1503 1501 1499 1499 1498 1497 1497 1497 1496 1496 1496 1497 1498 1499 1501 1503 1504 1505 1505 1504 1503 1504 1505 1506 1507 1507 1507 1507 1507 1507 1507 1507 1507 1508 1509 1509 1510 1510
1521 1521 1521 1529 1529 1526 1521 1515 1511 1508 1502 1501 1500 1499 1497 1497 1497 1497 1496 1496 1496 1496 1497 1498 1499 1501 1503 1503 1504 1504 1504 1503 1504 1504 1505 1506 1507 1507 1507 1506 1506 1506 1506 1506 1506 1507 1507 1508 1508
1521 1521 1527 1534 1530 1523 1517 1513 1510 1508 1504 1500 1500 1498 1496 1496 1496 1496 1496 1496 1496 1496 1497 1498 1499 1500 1501 1502 1503 1503 1503 1503 1503 1504 1505 1506 1506 1506 1506 1505 1505 1505 1505 1505 1505 1506 1506 1506 1506
1521 1523 1534 1536 1530 1522 1516 1512 1510 1507 1503 1500 1499 1497 1494 1495 1495 1495 1496 1496 1496 1496 1497 1498 1499 1500 1501 1501 1502 1502 1502 1503 1503 1503 1504 1504 1505 1505 1505 1504 1504 1504 1504 1504 1504 1505 1505 1505 1505
1522 1527 1532 1531 1530 1523 1514 1511 1509 1506 1502 1500 1498 1497 1494 1494 1494 1495 1495 1495 1496 1496 1497 1498 1499 1500 1500 1500 1501 1501 1502 1502 1502 1502 1503 1503 1504 1504 1503 1503 1503 1503 1503 1504 1504 1504 1504 1503 1503
1520 1525 1528 1530 1528 1522 1513 1510 1508 1506 1502 1500 1498 1496 1494 1495 1494 1494 1494 1495 1495 1496 1496 1497 1498 1499 1500 1500 1500 1500 1501 1501 1501 1501 1502 1502 1503 1503 1502 1502 1502 1502 1503 1503 1503 1503 1503 1502 1502
1519 1528 1530 1525 1523 1517 1511 1510 1507 1505 1502 1499 1497 1497 1496 1495 1493 1493 1493 1494 1494 1495 1496 1496 1497 1499 1499 1499 1499 1499 1500 1500 1500 1501 1501 1501 1502 1502 1502 1501 1501 1501 1502 1502 1502 1502 1501 1500 1500
1517 1526 1522 1516 1514 1512 1510 1510 1508 1504 1501 1498 1496 1496 1495 1494 1493 1492 1492 1492 1493 1494 1495 1496 1496 1497 1498 1498 1499 1499 1499 1499 1500 1500 1501 1501 1501 1501 1501 1501 1500 1500 1501 1501 1500 1500 1499 1498 1497
1513 1517 1514 1511 1510 1510 1509 1508 1507 1506 1502 1498 1496 1494 1493 1492 1492 1491 1491 1491 1492 1493 1494 1495 1495 1496 1497 1498 1498 1499 1499 1499 1499 1500 1500 1501 1501 1501 1500 1500 1500 1500 1499 1499 1499 1498 1497 1496 1495
1511 1511 1510 1509 1508 1508 1508 1506 1505 1502 1499 1497 1495 1493 1492 1490 1489 1489 1489 1490 1491 1491 1493 1494 1494 1495 1496 1496 1497 1498 1498 1498 1499 1499 1500 1500 1500 1500 1500 1499 1499 1499 1498 1498 1497 1496 1495 1494 1492
1509 1508 1507 1507 1507 1506 1505 1503 1501 1495 1494 1493 1492 1491 1489 1488 1487 1486 1487 1488 1488 1489 1491 1492 1492 1493 1494 1494 1495 1495 1496 1497 1498 1498 1499 1499 1499 1499 1499 1498 1498 1497 1496 1496 1495 1493 1492 1491 1489
1505 1506 1505 1505 1504 1503 1502 1497 1497 1489 1491 1489 1488 1487 1486 1484 1483 1483 1484 1485 1486 1486 1487 1488 1489 1490 1491 1491 1492 1493 1494 1495 1496 1496 1497 1497 1497 1497 1497 1496 1495 1494 1494 1492 1491 1489 1488 1486 1484
1503 1505 1505 1503 1502 1500 1500 1496 1488 1486 1487 1485 1484 1483 1481 1480 1480 1480 1480 1481 1482 1483 1484 1484 1485 1486 1487 1488 1489 1490 1491 1492 1493 1494 1495 1495 1495 1495 1494 1493 1492 1491 1490 1488 1486 1484 1482 1480 1478
1502 1507 1510 1503 1501 1499 1503 1499 1482 1485 1483 1482 1482 1480 1479 1478 1477 1477 1478 1478 1479 1480 1480 1481 1481 1481 1483 1484 1486 1487 1489 1490 1490 1491 1492 1492 1492 1492 1491 1489 1488 1487 1485 1483 1481 1479 1476 1474 1472
1504 1510 1510 1506 1499 1498 1501 1496 1482 1483 1482 1481 1480 1480 1478 1477 1476 1476 1476 1477 1477 1477 1477 1477 1477 1477 1478 1480 1482 1484 1485 1486 1488 1488 1488 1488 1488 1487 1486 1485 1483 1482 1480 1478 1475 1473 1470 1467 1465
1507 1509 1507 1507 1499 1498 1499 1494 1481 1480 1480 1479 1480 1480 1478 1477 1476 1476 1476 1476 1476 1476 1476 1475 1475 1474 1474 1475 1477 1479 1481 1483 1484 1484 1484 1484 1483 1482 1481 1480 1479 1477 1475 1472 1470 1467 1465 1462 1459
1500 1504 1506 1503 1498 1499 1497 1491 1480 1475 1477 1477 1478 1480 1479 1477 1478 1477 1477 1477 1477 1477 1476 1475 1474 1473 1473 1474 1475 1476 1478 1480 1480 1480 1480 1479 1479 1478 1477 1475 1474 1472 1470 1468 1465 1462 1459 1456 1454
1498 1502 1504 1501 1497 1497 1495 1488 1477 1473 1473 1473 1476 1479 1479 1479 1479 1479 1479 1479 1479 1478 1478 1476 1475 1475 1474 1474 1475 1476 1477 1478 1479 1479 1479 1478 1477 1476 1474 1472 1470 1468 1466 1463 1461 1457 1453 1450 1449
1498 1501 1502 1503 1499 1494 1494 1487 1478 1471 1471 1472 1474 1477 1479 1480 1480 1480 1480 1480 1480 1480 1479 1478 1477 1477 1476 1477 1477 1477 1478 1479 1480 1479 1479 1478 1476 1475 1473 1471 1468 1466 1463 1460 1457 1453 1449 1445 1443
1497 1496 1498 1501 1506 1507 1501 1504 1484 1474 1472 1473 1474 1477 1479 1481 1481 1481 1481 1481 1481 1481 1481 1481 1480 1479 1479 1479 1479 1479 1480 1480 1480 1480 1480 1478 1476 1474 1472 1469 1467 1464 1461 1457 1454 1450 1446 1442 1438
1491 1491 1496 1499 1503 1508 1503 1504 1487 1475 1473 1472 1473 1476 1479 1481 1482 1482 1482 1482 1483 1483 1483 1483 1483 1482 1482 1482 1482 1481 1481 1482 1482 1481 1480 1478 1475 1473 1470 1467 1464 1461 1457 1454 1450 1447 1443 1439 1434
1487 1493 1498 1503 1506 1511 1501 1503 1490 1477 1468 1467 1470 1474 1477 1480 1482 1483 1483 1484 1484 1485 1485 1485 1485 1484 1485 1484 1484 1484 1483 1483 1482 1480 1478 1476 1473 1471 1467 1464 1460 1457 1453 1450 1446 1442 1438 1434 1430
1489 1498 1509 1510 1514 1510 1496 1498 1484 1464 1461 1461 1464 1470 1475 1479 1481 1482 1483 1484 1485 1485 1486 1486 1486 1486 1486 1486 1485 1485 1484 1483 1481 1479 1476 1473 1470 1467 1464 1460 1456 1453 1449 1445 1441 1437 1433 1428 1424
1487 1493 1507 1512 1512 1506 1496 1497 1475 1461 1458 1457 1460 1466 1473 1478 1480 1481 1483 1484 1485 1486 1486 1487 1487 1486 1486 1486 1485 1485 1484 1482 1480 1477 1475 1471 1468 1465 1461 1457 1453 1449 1445 1440 1436 1431 1427 1422 1417
1485 1490 1491 1501 1502 1506 1497 1486 1469 1458 1458 1457 1460 1465 1471 1475 1478 1480 1482 1483 1484 1485 1486 1487 1487 1486 1486 1486 1485 1484 1483 1481 1478 1476 1472 1469 1465 1461 1457 1453 1449 1445 1440 1435 1430 1425 1420 1416 1411
1473 1481 1495 1498 1502 1502 1494 1486 1475 1460 1459 1461 1463 1465 1469 1474 1477 1479 1481 1482 1484 1485 1485 1486 1486 1486 1486 1485 1484 1483 1481 1479 1476 1473 1469 1466 1462 1457 1453 1449 1444 1440 1435 1430 1425 1420 1414 1409 1404
1476 1481 1483 1491 1496 1501 1499 1486 1467 1463 1459 1460 1463 1465 1469 1472 1475 1477 1479 1481 1483 1484 1485 1485 1485 1485 1485 1484 1483 1481 1479 1476 1473 1469 1465 1461 1457 1453 1449 1444 1439 1435 1430 1425 1420 1414 1409 1403 1398
1464 1471 1479 1489 1495 1497 1499 1487 1462 1461 1457 1458 1462 1466 1469 1472 1474 1476 1478 1480 1482 1483 1484 1484 1484 1484 1483 1483 1481 1479 1476 1473 1469 1466 1461 1457 1454 1449 1445 1440 1435 1430 1425 1420 1415 1409 1403 1398 1392